Find Starlink 33579

NORAD ID: 62764 Int'l Des: 2025-015 Owner: SPXS Country: US Constellation: starlink operational
LEOCIRCULAR

Live-Position

3D-Globus wird geladen...

Über Starlink 33579

Beschreibung wird geladen...

Nächste Überflüge

Passes for default location (London). Set your location on the main map for personalized predictions.

Höhenverlauf

Loading altitude history...

Zweizeiliger Elementsatz

1 62764U 25015G 26126.08521843 .00019622 00000-0 67210-3 0 9995
2 62764 53.1604 55.5049 0001272 162.9926 197.1118 15.30237174 73271
Epoch: 6. Mai 2026 • Age: 20 hours

Aktueller Status

Höhe 493.0 km
Geschwindigkeit 7.62 km/s
Subsatellitenpunkt -50.73°S, 149.73°E
Startdatum 21. Jan. 2025
Alter 1.2 years
Typ internet

Technische Details

Klassifizierung Payload
Masse 575.00 kg
Trockenmasse 530.00 kg
Gesamtmasse 575.00 kg
Länge 0.30 m
Durchmesser 4.10 m
Spannweite 29.00 m
Form Box + pan
Hersteller SPXS
Bus-Typ Starlink V2MO
Phasenstatus In Orbit
Besitzer/Staat SPXS/US

Most Searched